Torna al catalogo

FREGAT DEB

LostHEO
NORAD 45898·DEBRIS·🇷🇺 Russia

Lanciato Jul 18, 2011 da Baikonur Cosmodrome

Loading…

Prossimi Passaggi (prossime 24 ore)

TLE

ObsoletoSource: Space-Track

Epoca: Aug 27, 2020, 08:24 UTC

1 45898U 11037DT  20240.35065373  .00028027  00000-0  29465-1 0  9992
2 45898  51.3834 259.9016 2756361 122.3826 267.3781  9.24281732  4518

Traccia FREGAT DEB in tempo reale con AllMySat

Download on the App Store